Simultaneous Nadir Overpasses (SNOs) Predictions

Prediction of SNOs between GOES-15 and FY3D Satellite Orbit:

Table of predicted SNOs for the next 14.0 days since TLE Epoch: 4/9/2022
Index Date Time (GOES-15) GOES-15 Lat,Lon FY3D Lat,Lon Distance(km) Time Diff (sec)
1 04/09/2022 10:30:07 0.12,-128.40 0.54,-130.36 223.54 80
2 04/10/2022 10:09:03 0.12,-128.40 -0.46,-125.91 283.69 80
3 04/11/2022 22:31:32 -0.12,-128.40 -0.75,-131.34 333.98 80
4 04/12/2022 22:15:48 -0.12,-128.40 0.19,-126.87 173.29 80
5 04/14/2022 10:38:07 0.12,-128.38 1.00,-132.25 441.92 80
6 04/15/2022 10:17:04 0.12,-128.37 -0.01,-127.80 64.85 80
7 04/17/2022 22:21:09 -0.12,-128.36 -0.24,-128.77 47.59 80
8 04/18/2022 22:05:25 -0.12,-128.34 0.77,-124.32 458.82 80
9 04/20/2022 10:25:04 0.12,-128.31 0.42,-129.70 157.99 80
10 04/21/2022 10:09:21 0.12,-128.29 -0.59,-125.25 347.66 80
11 04/22/2022 22:29:09 -0.12,-128.27 -0.65,-130.66 273.18 80
